When you browse on this site, cookies collect data to enhance your experience and personalize the content and advertising you see.
Visit our Privacy Policy to learn more. By continuing to use the site, you agree to this use of cookies and data.
  • In Spain
  • List of Countries
  • For 7 days
  • Water Temperature
  • Weather Map
  • Weather Widgets
  • user-avatar
    Login

    Hourly Weather Vatican

    Today, 5 December, Thursday

    Time Temperature Precipitation Wind Pressure Humidity
    00:00 +9°C° 0 mm 5 mps 762 mmHg 55%
    01:00 +10°C° 0 mm 5 mps 762 mmHg 51%
    02:00 +10°C° 0 mm 4 mps 762 mmHg 51%
    03:00 +10°C° 0 mm 4 mps 762 mmHg 51%
    04:00 +10°C° 0 mm 4 mps 761 mmHg 51%
    05:00 +10°C° 0 mm 4 mps 762 mmHg 50%
    06:00 +9°C° 0 mm 5 mps 762 mmHg 50%
    07:00 +9°C° 0 mm 6 mps 763 mmHg 52%
    08:00 +10°C° 0 mm 6 mps 763 mmHg 50%
    09:00 +11°C° 0 mm 6 mps 763 mmHg 48%
    10:00 +13°C° 0 mm 6 mps 763 mmHg 46%
    11:00 +14°C° 0 mm 6 mps 763 mmHg 45%
    12:00 +15°C° 0 mm 6 mps 763 mmHg 44%
    13:00 +16°C° 0 mm 6 mps 763 mmHg 44%
    14:00 +15°C° 0 mm 5 mps 763 mmHg 47%
    15:00 +15°C° 0 mm 5 mps 763 mmHg 50%
    16:00 +15°C° 0 mm 4 mps 763 mmHg 53%
    17:00 +14°C° 0 mm 4 mps 764 mmHg 54%
    18:00 +13°C° 0 mm 4 mps 764 mmHg 55%
    19:00 +13°C° 0 mm 4 mps 765 mmHg 55%
    20:00 +12°C° 0 mm 4 mps 765 mmHg 56%
    21:00 +12°C° 0 mm 4 mps 765 mmHg 58%
    22:00 +12°C° 0 mm 4 mps 765 mmHg 59%
    23:00 +12°C° 0 mm 4 mps 765 mmHg 60%

    Tomorrow, 6 December, Friday

    Time Temperature Precipitation Wind Pressure Humidity
    00:00 +12°C° 0 mm 4 mps 765 mmHg 61%
    01:00 +12°C° 0 mm 4 mps 765 mmHg 63%
    02:00 +12°C° 0 mm 4 mps 765 mmHg 64%
    03:00 +12°C° 0 mm 4 mps 765 mmHg 66%
    04:00 +12°C° 0 mm 4 mps 764 mmHg 67%
    05:00 +12°C° 0 mm 4 mps 764 mmHg 68%
    06:00 +12°C° 0 mm 4 mps 765 mmHg 69%
    07:00 +12°C° 0 mm 4 mps 765 mmHg 70%
    08:00 +12°C° 0 mm 4 mps 765 mmHg 69%
    09:00 +13°C° 0 mm 4 mps 765 mmHg 68%
    10:00 +14°C° 0 mm 4 mps 765 mmHg 68%
    11:00 +15°C° 0.1 mm 4 mps 765 mmHg 68%
    12:00 +15°C° 0.1 mm 4 mps 764 mmHg 69%
    13:00 +17°C° 0.1 mm 4 mps 764 mmHg 69%
    14:00 +17°C° 0.3 mm 3 mps 764 mmHg 71%
    15:00 +16°C° 0.3 mm 3 mps 764 mmHg 73%
    16:00 +16°C° 0.3 mm 3 mps 763 mmHg 74%
    17:00 +16°C° 0.3 mm 3 mps 763 mmHg 75%
    18:00 +16°C° 0.3 mm 2 mps 764 mmHg 76%
    19:00 +16°C° 0.3 mm 2 mps 764 mmHg 78%
    20:00 +15°C° 0.6 mm 2 mps 764 mmHg 78%
    21:00 +15°C° 0.6 mm 2 mps 764 mmHg 78%
    22:00 +15°C° 0.6 mm 2 mps 764 mmHg 78%
    23:00 +15°C° 0.5 mm 2 mps 764 mmHg 78%

    Day after tomorrow, 7 December, Saturday

    Time Temperature Precipitation Wind Pressure Humidity
    00:00 +14°C° 0.5 mm 3 mps 764 mmHg 79%
    01:00 +14°C° 0.5 mm 3 mps 764 mmHg 79%
    02:00 +14°C° 0.1 mm 3 mps 763 mmHg 80%
    03:00 +13°C° 0.1 mm 3 mps 763 mmHg 81%
    04:00 +14°C° 0.1 mm 2 mps 763 mmHg 82%
    05:00 +14°C° 0.1 mm 2 mps 763 mmHg 82%
    06:00 +14°C° 0.1 mm 2 mps 763 mmHg 81%
    07:00 +15°C° 0.1 mm 2 mps 763 mmHg 80%
    08:00 +14°C° 0 mm 3 mps 763 mmHg 78%
    09:00 +16°C° 0 mm 3 mps 763 mmHg 76%
    10:00 +16°C° 0 mm 3 mps 763 mmHg 73%
    11:00 +17°C° 0.1 mm 3 mps 763 mmHg 73%
    12:00 +17°C° 0.1 mm 4 mps 762 mmHg 72%
    13:00 +17°C° 0.1 mm 4 mps 762 mmHg 71%
    14:00 +17°C° 0.1 mm 4 mps 762 mmHg 73%
    15:00 +17°C° 0.1 mm 4 mps 762 mmHg 74%
    16:00 +15°C° 0.1 mm 5 mps 761 mmHg 76%
    17:00 +15°C° 0.1 mm 5 mps 762 mmHg 77%
    18:00 +15°C° 0.1 mm 5 mps 762 mmHg 77%
    19:00 +15°C° 0.1 mm 6 mps 762 mmHg 78%
    20:00 +15°C° 0.1 mm 6 mps 762 mmHg 78%
    21:00 +15°C° 0.1 mm 6 mps 762 mmHg 79%
    22:00 +14°C° 0.1 mm 6 mps 763 mmHg 80%
    23:00 +14°C° 0.1 mm 6 mps 763 mmHg 80%

    8 December, Sunday

    Time Temperature Precipitation Wind Pressure Humidity
    00:00 +14°C° 0.1 mm 5 mps 763 mmHg 81%
    01:00 +14°C° 0.1 mm 5 mps 763 mmHg 82%
    02:00 +14°C° 0.1 mm 5 mps 762 mmHg 82%
    03:00 +14°C° 0.1 mm 4 mps 762 mmHg 82%
    04:00 +13°C° 0.1 mm 4 mps 762 mmHg 82%
    05:00 +13°C° 0.1 mm 4 mps 762 mmHg 82%
    06:00 +13°C° 0.1 mm 3 mps 762 mmHg 82%
    07:00 +13°C° 0.1 mm 3 mps 762 mmHg 82%
    08:00 +14°C° 0 mm 3 mps 763 mmHg 78%
    09:00 +15°C° 0 mm 4 mps 763 mmHg 74%
    10:00 +15°C° 0 mm 4 mps 763 mmHg 69%
    11:00 +17°C° 0 mm 4 mps 763 mmHg 68%
    12:00 +17°C° 0 mm 4 mps 762 mmHg 67%
    13:00 +17°C° 0 mm 4 mps 762 mmHg 66%
    14:00 +17°C° 0 mm 4 mps 762 mmHg 67%
    15:00 +15°C° 0 mm 5 mps 762 mmHg 69%
    16:00 +15°C° 0 mm 5 mps 761 mmHg 70%
    17:00 +15°C° 0 mm 4 mps 762 mmHg 71%
    18:00 +14°C° 0 mm 4 mps 762 mmHg 72%
    19:00 +14°C° 0 mm 4 mps 762 mmHg 72%
    20:00 +14°C° 0 mm 3 mps 762 mmHg 73%
    21:00 +14°C° 0 mm 3 mps 762 mmHg 74%
    22:00 +13°C° 0 mm 3 mps 762 mmHg 75%
    23:00 +13°C° 0 mm 4 mps 761 mmHg 76%

    9 December, Monday

    Time Temperature Precipitation Wind Pressure Humidity
    00:00 +13°C° 0 mm 5 mps 761 mmHg 78%
    01:00 +13°C° 0 mm 6 mps 761 mmHg 80%
    02:00 +13°C° 0.1 mm 6 mps 761 mmHg 79%
    03:00 +13°C° 0.1 mm 5 mps 760 mmHg 78%
    04:00 +13°C° 0.1 mm 5 mps 760 mmHg 77%
    05:00 +13°C° 0.1 mm 5 mps 760 mmHg 77%
    06:00 +13°C° 0.1 mm 4 mps 759 mmHg 77%
    07:00 +13°C° 0.1 mm 4 mps 759 mmHg 77%
    08:00 +14°C° 0.1 mm 3 mps 759 mmHg 78%
    09:00 +14°C° 0.1 mm 3 mps 759 mmHg 78%
    10:00 +14°C° 0.1 mm 3 mps 759 mmHg 78%
    11:00 +16°C° 0 mm 3 mps 759 mmHg 77%
    12:00 +17°C° 0 mm 3 mps 758 mmHg 75%
    13:00 +17°C° 0 mm 3 mps 757 mmHg 74%
    14:00 +17°C° 0 mm 3 mps 757 mmHg 75%
    15:00 +17°C° 0 mm 3 mps 757 mmHg 76%
    16:00 +17°C° 0 mm 3 mps 757 mmHg 77%
    17:00 +15°C° 0 mm 5 mps 757 mmHg 74%
    18:00 +15°C° 0 mm 6 mps 757 mmHg 71%
    19:00 +13°C° 0 mm 8 mps 757 mmHg 68%
    20:00 +13°C° 0 mm 9 mps 757 mmHg 67%
    21:00 +13°C° 0 mm 10 mps 758 mmHg 65%
    22:00 +12°C° 0 mm 11 mps 758 mmHg 64%
    23:00 +12°C° 0 mm 9 mps 759 mmHg 66%

    10 December, Tuesday

    Time Temperature Precipitation Wind Pressure Humidity
    00:00 +11°C° 0 mm 8 mps 759 mmHg 68%
    01:00 +11°C° 0 mm 6 mps 759 mmHg 70%
    02:00 +10°C° 0 mm 6 mps 760 mmHg 71%
    03:00 +10°C° 0 mm 6 mps 760 mmHg 72%
    04:00 +10°C° 0 mm 6 mps 761 mmHg 73%
    05:00 +9°C° 0 mm 6 mps 761 mmHg 73%
    06:00 +9°C° 0 mm 6 mps 762 mmHg 72%
    07:00 +9°C° 0 mm 6 mps 762 mmHg 72%
    08:00 +10°C° 0 mm 5 mps 762 mmHg 68%
    09:00 +10°C° 0 mm 5 mps 763 mmHg 63%
    10:00 +12°C° 0 mm 4 mps 763 mmHg 58%
    11:00 +13°C° 0 mm 4 mps 763 mmHg 53%
    12:00 +14°C° 0 mm 3 mps 763 mmHg 48%
    13:00 +16°C° 0 mm 2 mps 763 mmHg 44%
    14:00 +16°C° 0 mm 3 mps 763 mmHg 48%
    15:00 +14°C° 0 mm 3 mps 763 mmHg 51%
    16:00 +14°C° 0 mm 4 mps 763 mmHg 55%
    17:00 +14°C° 0 mm 4 mps 763 mmHg 59%
    18:00 +13°C° 0 mm 4 mps 763 mmHg 62%
    19:00 +13°C° 0 mm 5 mps 763 mmHg 66%
    20:00 +13°C° 0 mm 6 mps 763 mmHg 69%
    21:00 +13°C° 0 mm 6 mps 763 mmHg 71%
    22:00 +12°C° 0 mm 7 mps 763 mmHg 74%
    23:00 +12°C° 0.1 mm 7 mps 763 mmHg 75%
    Show more